Flag for Brazil Weather past 2 weeks in Uberlândia, Minas Gerais, Brazil

Now
70 °F

Sunny.


Feels Like: 70 °F
Forecast: 69 / 80 °F
Wind: 3 mph from Southeast

Location: Leite Lopes / Ribeir

Current Time: Mar 29, 2015 at 6:44:25 AM

Latest Report: Mar 29, 2015 at 6:00 AM


Visibility: 10 mi

Pressure: 30.01 "Hg

Humidity: 94%

Dew point: 68 °F

Location of UberlândiaLocation

Historic Weather in Uberlândia — Graph

°F

Uberlândia temperature yesterday

Maximum temperature yesterday: 90 °F (at 2:00 PM)
Minimum temperature yesterday: 66 °F (at 3:00 AM)
Average temperature yesterday: 77 °F

Past Weeks' High & Low Weather Summary

 TemperatureHumidityPressure
High90 °F (Mar 24, 2:00 PM)100% (Mar 22, 7:00 PM)30.12 "Hg (Mar 22, 7:00 PM)
Low36 °F (Mar 22, 7:00 PM)33% (Mar 24, 2:00 PM)29.83 "Hg (Mar 21, 3:00 PM)
Average73 °F79%29.99 "Hg
* Reported Mar 14 5:00 AM — Mar 29 5:00 AM, Uberlândia, Weather by CustomWeather, © 2015

Note: Actual official high and low records may vary slightly from our data, if they occured in-between our weather recording intervals... More about our weather records

Advertising

Uberlândia weather history for previous 24 hours

 ConditionsComfort  
Time TempWeatherWind HumidityBarometerVisibility
5:00 AM
Sun, Mar 29
70 °FClear.2 mph88%29.98 "Hg10 mi
4:00 AM72 °FClear.5 mph88%29.98 "Hg10 mi
3:00 AM72 °FClear.5 mph88%29.98 "Hg10 mi
2:00 AM72 °FClear.5 mph88%29.98 "Hg10 mi
1:00 AM72 °FClear.3 mph88%30.01 "Hg10 mi
12:00 AM73 °FClear.3 mph83%30.01 "Hg10 mi
11:00 PM
Sat, Mar 28
73 °FClear.2 mph83%30.04 "Hg10 mi
10:00 PM73 °FClear.2 mph83%30.01 "Hg10 mi
9:00 PM77 °FClear.No wind79%30.01 "Hg10 mi
8:00 PM81 °FClear.No wind66%30.01 "Hg10 mi
7:00 PM84 °FClear.3 mph55%29.98 "Hg10 mi
6:00 PM86 °FClear.6 mph49%29.98 "Hg10 mi
5:00 PM88 °FPassing clouds.5 mph46%29.98 "HgN/A
4:00 PM90 °FPassing clouds.5 mph43%29.98 "HgN/A
3:00 PM90 °FPassing clouds.6 mph43%30.01 "HgN/A
2:00 PM90 °FPassing clouds.3 mph38%30.04 "HgN/A
1:00 PM86 °FPassing clouds.5 mph46%30.07 "HgN/A
12:00 PM86 °FPassing clouds.3 mph49%30.09 "HgN/A
11:00 AM84 °FPassing clouds.3 mph58%30.12 "HgN/A
10:00 AM79 °FPassing clouds.5 mph70%30.12 "HgN/A
9:00 AM75 °FScattered clouds.6 mph83%30.12 "HgN/A
8:00 AM70 °FFog.5 mph94%30.12 "Hg1 mi
7:00 AM68 °FFog.6 mph94%30.09 "Hg1 mi
6:00 AM66 °FFog.5 mph94%30.09 "Hg1 mi
Weather by CustomWeather, © 2015

See weather overviewHow to use our weather pages